[[{"header":{"parameterUnit":"m.s-1","parameterCategory":1,"la1":30.2991,"la2":30.254,"lo1":-89.0895,"lo2":-89.0444,"dy":0.0017,"dx":0.0017,"nx":28,"ny":28,"refTime":"2025-05-18T03:00:00:Z","depth":0,"parameterNumber":2,"parameterNumberName":"U-component_of_WINDS"},"data":[0,0,0,0,0,0,0,0,0,0,0,0,0,0,0,0,0,0,0,0,0,0,0,0,0,0,0,0,0,0,0,0,0,0,0,0,0,0,0,0,0,0,0,0,0,0,0,0,0,0,0,0,0,0,0,0,0,0,0.1676,0.1678,0,0.181,0.1812,0.1813,0.184,0.1839,0.1838,0.1837,0.1979,0.1984,0.1988,0,0,0,0,0,0,0,0,0,0,0,0,0,0.1447,0.1451,0.1676,0.1678,0.1679,0.181,0.1812,0.1814,0.184,0.1839,0.1838,0.1837,0.1977,0.1983,0.1989,0,0,0,0,0,0,0,0,0,0,0,0,0,0.156,0.1452,0.1676,0.1708,0.1713,0.1809,0.1812,0.1814,0.1841,0.1839,0.1837,0.1836,0.1976,0.1983,0.199,0.2065,0,0,0.2011,0.2014,0,0,0,0,0,0,0,0,0.1554,0.1569,0.1702,0.1706,0.1711,0.1807,0.1783,0.1898,0.1841,0.1792,0.1837,0.1835,0.1923,0.1935,0.1963,0.2072,0.2078,0.2012,0.2016,0.2019,0.2021,0,0,0,0,0,0,0,0.1546,0.1563,0.1729,0.1704,0.171,0.1717,0.1732,0.1805,0.1865,0.1796,0.1798,0.1814,0.1926,0.1956,0.1967,0.208,0.2012,0.2018,0.2023,0.2025,0.2257,0.2258,0,0,0,0,0,0,0.1532,0.1556,0.1725,0.1733,0.1627,0.1723,0.1739,0.1778,0.1864,0.1876,0.1815,0.1814,0.1945,0.1959,0.1972,0.2066,0.2019,0.2026,0.203,0.2255,0.2257,0.2259,0,0,0,0,0,0,0.1527,0.1547,0.172,0.1646,0.1668,0.1728,0.1772,0.1781,0.1812,0.1878,0.189,0.1835,0.1944,0.1962,0.2041,0.2071,0.2029,0.2036,0.2253,0.2255,0.2258,0.2255,0,0,0,0,0,0,0.152,0.1545,0.1573,0.1646,0.1672,0.1786,0.1774,0.1785,0.1824,0.1824,0.19,0.1911,0.1944,0.203,0.2048,0.2081,0.2041,0.225,0.2254,0.2257,0.2253,0.2257,0.2261,0,0,0,0,0,0.1512,0.1568,0.1574,0.1595,0.1709,0.1787,0.1802,0.1838,0.1826,0.1856,0.1898,0.1909,0.2065,0.2038,0.2059,0.2094,0.2248,0.2253,0.2257,0.2251,0.2256,0.2261,0,0,0,0,0,0,0.1499,0.1578,0.1586,0.1667,0.172,0.1791,0.183,0.1843,0.1901,0.19,0.1942,0.1959,0.2036,0.2073,0.2042,0.2171,0.2156,0.2165,0.2144,0.215,0.2155,0.2145,0.2047,0,0,0,0,0,0.1505,0.1561,0.1628,0.1693,0.1719,0.177,0.1805,0.1828,0.1885,0.1908,0.1956,0.2013,0.2074,0.2114,0.2175,0.2257,0.2275,0.2291,0.2295,0.2299,0.2306,0.2353,0.2361,0.2273,0.2273,0.2273,0,0,0.152,0.157,0.1603,0.1692,0.1735,0.1793,0.1789,0.1851,0.1894,0.1918,0.1996,0.2033,0.2098,0.218,0.2218,0.2213,0.2334,0.2304,0.2306,0.2312,0.2358,0.2366,0.2374,0.2276,0.2275,0.2275,0,0,0.1576,0.1619,0.1678,0.1721,0.1786,0.1819,0.1833,0.1903,0.1928,0.2006,0.2025,0.2078,0.2183,0.2229,0.2266,0.2338,0.235,0.2356,0.2379,0.2424,0.2431,0.2438,0.2464,0.2473,0.2363,0.2363,0.2363,0,0.1586,0.1673,0.1707,0.1768,0.1806,0.1828,0.1889,0.1929,0.2012,0.2039,0.2031,0.2162,0.2208,0.2301,0.2318,0.2347,0.2365,0.2349,0.2427,0.2434,0.2441,0.2466,0.2476,0.2363,0.2363,0.2363,0.2363,0,0.1682,0.1742,0.1782,0.1859,0.1903,0.1963,0.2007,0.2047,0.2065,0.2099,0.2179,0.2234,0.2305,0.2329,0.2348,0.2424,0.2419,0.2418,0.2405,0.2449,0.2474,0.2484,0.2364,0.2364,0.2363,0.2363,0,0,0.1736,0.1829,0.1844,0.1879,0.1952,0.1999,0.2061,0.2129,0.2163,0.2218,0.2272,0.2359,0.2359,0.2401,0.2426,0.2465,0.2519,0.246,0.2462,0.247,0.2607,0.2607,0.2618,0.2526,0.2528,0.253,0.2601,0,0.1802,0.191,0.1942,0.2035,0.2091,0.2111,0.2165,0.2216,0.2249,0.2303,0.234,0.2402,0.2396,0.2422,0.2461,0.2503,0.2547,0.2499,0.2578,0.2581,0.2562,0.2631,0.2632,0.2697,0.2611,0.2613,0.2614,0,0.1893,0.1948,0.2046,0.2111,0.2135,0.2183,0.2248,0.2298,0.2357,0.2378,0.2424,0.2445,0.2511,0.2491,0.2583,0.255,0.2584,0.2609,0.2613,0.2623,0.2601,0.2644,0.2718,0.2728,0.263,0.2628,0.2627,0,0.1923,0.2022,0.2093,0.2122,0.22,0.2233,0.2267,0.2323,0.2362,0.2419,0.2445,0.251,0.2546,0.2595,0.2633,0.2616,0.2722,0.2706,0.2743,0.2742,0.2766,0.2765,0.2848,0.2786,0.2786,0.2785,0.2785,0,0.1994,0.2053,0.2108,0.2152,0.2218,0.2254,0.232,0.2355,0.2405,0.2457,0.2479,0.2527,0.2573,0.2628,0.2658,0.273,0.2746,0.2766,0.2774,0.2765,0.2763,0.2789,0.2787,0.2788,0.2787,0.2787,0.2786,0,0.204,0.2079,0.2157,0.2223,0.2241,0.2288,0.2345,0.2389,0.2422,0.2487,0.2505,0.2558,0.2623,0.2665,0.2749,0.277,0.2849,0.2854,0.2829,0.2832,0.2867,0.2864,0.2973,0.2989,0.2914,0.2914,0.2915,0,0.2083,0.2128,0.2199,0.2234,0.2268,0.2325,0.2364,0.2401,0.2441,0.2511,0.2546,0.2613,0.2668,0.2772,0.2819,0.2884,0.2892,0.2925,0.2902,0.2892,0.2894,0.2891,0.2896,0.293,0.293,0.2931,0.2931,0,0.2155,0.2172,0.2227,0.2289,0.2334,0.2385,0.2436,0.2464,0.251,0.2554,0.2621,0.2663,0.2748,0.2814,0.2883,0.2919,0.2934,0.2938,0.295,0.2942,0.2926,0.2936,0.284,0.2936,0.2935,0.2935,0.2935,0.2934,0.2202,0.2244,0.2299,0.236,0.2401,0.2448,0.2492,0.253,0.2586,0.2657,0.2675,0.2745,0.2802,0.2895,0.2932,0.2988,0.2984,0.3002,0.3006,0.301,0.3011,0.2915,0.3001,0.3001,0.3001,0.3,0.3,0,0.2277,0.2313,0.2368,0.2438,0.2486,0.2492,0.2549,0.2589,0.2649,0.27,0.2754,0.283,0.2894,0.2945,0.3011,0.3046,0.3054,0.3062,0.3061,0.3069,0.3011,0.2994,0.3054,0.3054,0.3054,0.3054,0.3054,0.3054,0.2321,0.2392,0.2415,0.2507,0.2543,0.261,0.2642,0.2685,0.2726,0.281,0.2863,0.2895,0.2946,0.3016,0.3075,0.3089,0.3113,0.312,0.3134,0.3079,0.3073,0.3068,0.3052,0.3124,0.3124,0.3189,0.3189,0.319]},{"header":{"parameterUnit":"m.s-1","parameterCategory":1,"la1":30.2991,"la2":30.254,"lo1":-89.0895,"lo2":-89.0444,"dy":0.0017,"dx":0.0017,"nx":28,"ny":28,"refTime":"2025-05-18T03:00:00:Z","depth":0,"parameterNumber":3,"parameterNumberName":"V-component_of_WINDS"},"data":[0,0,0,0,0,0,0,0,0,0,0,0,0,0,0,0,0,0,0,0,0,0,0,0,0,0,0,0,0,0,0,0,0,0,0,0,0,0,0,0,0,0,0,0,0,0,0,0,0,0,0,0,0,0,0,0,0,0,5.1757,5.1757,0,5.1747,5.1747,5.1747,5.1694,5.1693,5.1692,5.1691,5.1681,5.1681,5.1682,0,0,0,0,0,0,0,0,0,0,0,0,0,5.1731,5.1732,5.1757,5.1757,5.1757,5.1747,5.1747,5.1747,5.1695,5.1693,5.1692,5.169,5.168,5.1681,5.1682,0,0,0,0,0,0,0,0,0,0,0,0,0,5.1734,5.1732,5.1757,5.1729,5.1727,5.1747,5.1747,5.1747,5.1695,5.1693,5.1691,5.169,5.168,5.1681,5.1683,5.1728,0,0,5.1687,5.1687,0,0,0,0,0,0,0,0,5.1734,5.1735,5.1734,5.1731,5.1729,5.172,5.1734,5.1741,5.1695,5.1707,5.1691,5.1689,5.1695,5.1695,5.1697,5.1728,5.1727,5.1687,5.1688,5.1688,5.1689,0,0,0,0,0,0,0,5.1734,5.1735,5.1753,5.1734,5.1731,5.1718,5.1716,5.1735,5.1712,5.1706,5.1702,5.1702,5.1694,5.1696,5.1697,5.1727,5.1687,5.1688,5.1689,5.1689,5.1796,5.1797,0,0,0,0,0,0,5.1737,5.1735,5.1753,5.1753,5.1727,5.172,5.1718,5.1725,5.1711,5.1708,5.1703,5.1699,5.1695,5.1695,5.1696,5.1749,5.1688,5.1689,5.169,5.1794,5.1796,5.1798,0,0,0,0,0,0,5.1737,5.174,5.1754,5.1743,5.1744,5.1722,5.173,5.1725,5.1728,5.1709,5.1705,5.171,5.1693,5.1694,5.1721,5.1748,5.169,5.1691,5.1791,5.1794,5.1797,5.1855,0,0,0,0,0,0,5.1737,5.174,5.1757,5.1744,5.1745,5.1778,5.1732,5.1727,5.1731,5.1725,5.1715,5.1711,5.1692,5.1719,5.1722,5.1749,5.1692,5.1789,5.1793,5.1796,5.1851,5.186,5.1868,0,0,0,0,0,5.1736,5.1773,5.1758,5.176,5.1765,5.178,5.178,5.1757,5.1733,5.175,5.1738,5.1712,5.1745,5.1722,5.1725,5.1753,5.1787,5.1791,5.1796,5.1847,5.1858,5.1867,0,0,0,0,0,0,5.1789,5.1771,5.1753,5.1788,5.1786,5.1771,5.1791,5.177,5.1775,5.177,5.1741,5.1739,5.177,5.1764,5.1739,5.1797,5.1761,5.1767,5.1799,5.181,5.1818,5.1818,5.1693,0,0,0,0,0,5.1805,5.1818,5.1802,5.1833,5.1834,5.1813,5.1819,5.1801,5.1798,5.1797,5.1787,5.1785,5.1795,5.1802,5.181,5.185,5.1847,5.1871,5.1879,5.1886,5.1891,5.1912,5.1922,5.1813,5.1813,5.1813,0,0,5.1837,5.1829,5.1839,5.1844,5.184,5.1855,5.1813,5.183,5.1841,5.18,5.1824,5.1817,5.1813,5.1847,5.1861,5.1843,5.1921,5.1892,5.1898,5.1898,5.1918,5.1928,5.1937,5.1816,5.1816,5.1815,0,0,5.1904,5.1899,5.1925,5.1923,5.1919,5.1905,5.1912,5.1901,5.1894,5.1919,5.1888,5.1901,5.1919,5.1917,5.1919,5.1987,5.1963,5.1991,5.2035,5.2056,5.2064,5.2072,5.2096,5.2105,5.1996,5.1996,5.1996,0,5.1945,5.1966,5.1941,5.1961,5.1964,5.1929,5.1955,5.1954,5.1953,5.1956,5.1936,5.1958,5.1953,5.1986,5.2003,5.2005,5.2012,5.1991,5.2065,5.2072,5.2079,5.2102,5.2111,5.1999,5.1999,5.1999,5.1998,0,5.2016,5.2032,5.2053,5.2053,5.2059,5.2082,5.2062,5.2071,5.2054,5.2042,5.2068,5.2061,5.2067,5.2074,5.2057,5.2105,5.2094,5.207,5.2034,5.2093,5.2114,5.2123,5.2004,5.2003,5.2002,5.2001,0,0,5.2114,5.2102,5.211,5.211,5.2104,5.2115,5.2137,5.2144,5.2152,5.2153,5.2171,5.2187,5.2165,5.2168,5.215,5.2169,5.2224,5.2143,5.2142,5.2158,5.2277,5.2294,5.2305,5.2209,5.221,5.2211,5.2277,0,5.2178,5.2214,5.2194,5.2234,5.2248,5.2215,5.2234,5.2233,5.2223,5.2234,5.2224,5.2236,5.2206,5.2207,5.2224,5.2214,5.2247,5.2209,5.2225,5.2226,5.2226,5.2316,5.2334,5.2396,5.2285,5.2286,5.2287,0,5.2256,5.2261,5.2302,5.2294,5.2299,5.2317,5.2322,5.2333,5.2331,5.2323,5.2326,5.2305,5.2326,5.2291,5.2321,5.2295,5.2301,5.2297,5.2298,5.2298,5.226,5.2318,5.2416,5.2425,5.23,5.2299,5.2298,0,5.2324,5.2341,5.2368,5.2369,5.236,5.2373,5.237,5.2366,5.2372,5.2377,5.238,5.2387,5.2391,5.2397,5.2379,5.2355,5.2411,5.2374,5.2405,5.2405,5.2417,5.2416,5.2517,5.2422,5.2422,5.2421,5.2421,0,5.2396,5.2423,5.2398,5.2414,5.2443,5.242,5.245,5.2443,5.244,5.2455,5.2428,5.2442,5.2417,5.243,5.2416,5.2442,5.2444,5.2438,5.2434,5.244,5.2441,5.2443,5.2438,5.2424,5.2423,5.2423,5.2422,0,5.2476,5.246,5.2487,5.2478,5.2476,5.2498,5.2489,5.2504,5.2494,5.2513,5.2516,5.25,5.2513,5.2495,5.2507,5.2497,5.2534,5.2523,5.2534,5.2531,5.2563,5.256,5.2667,5.268,5.2577,5.2578,5.2579,0,5.2523,5.2543,5.2535,5.2544,5.2542,5.2556,5.2562,5.2541,5.2548,5.2548,5.2564,5.2575,5.2582,5.2605,5.2594,5.2603,5.2592,5.2629,5.2593,5.2599,5.2592,5.2591,5.2593,5.2636,5.2637,5.2638,5.2639,0,5.2608,5.26,5.261,5.2618,5.2626,5.2631,5.2633,5.2642,5.262,5.263,5.2643,5.2649,5.2661,5.2673,5.2679,5.2676,5.2654,5.2651,5.2658,5.2665,5.267,5.2667,5.2554,5.2648,5.2647,5.2647,5.2646,5.2646,5.2672,5.2689,5.2687,5.2699,5.2699,5.2703,5.2717,5.2709,5.272,5.2728,5.2715,5.2732,5.2731,5.2737,5.2736,5.275,5.2733,5.2744,5.2747,5.275,5.2755,5.2669,5.2751,5.275,5.275,5.275,5.275,0,5.2756,5.2754,5.2765,5.2771,5.2781,5.276,5.2763,5.2772,5.2788,5.2789,5.2797,5.2813,5.2824,5.2815,5.2824,5.2837,5.2827,5.284,5.2838,5.2838,5.2768,5.2761,5.2848,5.2848,5.2848,5.2848,5.2848,5.2848,5.2801,5.2828,5.282,5.2847,5.2844,5.2861,5.2864,5.2867,5.2868,5.2887,5.2897,5.2891,5.2887,5.2897,5.2906,5.2903,5.2908,5.2924,5.2918,5.2853,5.2843,5.2834,5.2827,5.2926,5.2926,5.2986,5.2987,5.2987]}]]